#timestamp,LO_Frequency,Hit,StdDev 
1682215215.1,286046998.4,N
1682215235.9,286046996.5,N
1682215255.7,286046997.4,N
1682215275.5,286046996.5,N
1682215295.4,286046996.5,N
1682215315.2,286046999.6,N
1682215335.1,286046998.6,N
1682215336.0,286046998.6,N
1682215355.8,286047000.2,N
1682215375.6,286046999.0,N
1682215395.5,286046999.2,N
1682215415.3,286046999.2,N
1682215435.1,286046999.0,N
1682215455.9,286046998.8,N
1682215475.7,286046998.5,N
1682215495.6,286046999.9,N
1682215515.4,286046998.3,N
1682215535.2,286047000.4,N
1682215555.1,286047002.7,N
1682215556.0,286047002.7,N
1682215575.8,286047001.8,N
1682215595.6,286047001.8,N
1682215615.5,286047002.5,N
1682215635.3,286047000.3,N
1682215655.2,286047001.0,N
1682215675.9,286047001.6,N
1682215695.7,286047001.4,N
1682215715.6,286047000.4,N
1682215735.4,286047000.6,N
1682215755.2,286047000.8,N
1682215775.1,286046998.5,N
1682215776.0,286046998.5,N
1682215795.8,286046998.2,N
1682215815.7,286046999.5,N
1682215835.5,286046999.6,N
1682215855.3,286046999.2,N
1682215875.2,286046999.4,N
1682215895.0,286046998.4,N
1682215895.9,286046998.4,N
1682215915.7,286047002.7,N
1682215935.6,286047000.2,N
1682215955.4,286047002.5,N
1682215975.3,286047002.4,N
1682215995.1,286047000.1,N
1682215996.0,286047000.1,N
1682216015.8,286047000.2,N
1682216035.7,286046999.8,N
1682216055.5,286047002.7,N
1682216075.3,286047002.7,N
1682216095.2,286047000.2,N
1682216115.0,286047001.0,N
1682216115.9,286047001.0,N
1682216135.8,286047001.0,N
1682216155.6,286046999.9,N
1682216175.4,286046999.9,N
1682216195.3,286046998.6,N
1682216215.1,286047001.2,N
1682216235.8,286046998.2,N
1682216255.7,286046998.6,N
1682216275.5,286046998.6,N
1682216295.4,286047001.4,N
1682216315.2,286047004.2,N
1682216335.1,286047004.4,N
1682216336.0,286047004.4,N
1682216355.8,286047000.2,N
1682216375.6,286047000.3,N
1682216395.5,286046998.3,N
1682216415.3,286047000.5,N
1682216435.1,286046999.9,N
1682216455.9,286047001.6,N
1682216475.7,286046999.7,N
1682216495.6,286047002.8,N
1682216515.4,286046999.9,N
1682216535.2,286046998.1,N
1682216555.1,286047002.0,N
1682216556.0,286047002.0,N
1682216575.8,286047002.3,N
1682216595.7,286047000.6,N
1682216615.5,286046999.4,N
1682216635.3,286046998.2,N
1682216655.2,286047001.0,N
1682216675.9,286047000.7,N
1682216695.7,286046999.7,N
1682216715.6,286046999.8,N
1682216735.4,286047001.0,N
1682216755.2,286046998.2,N
1682216775.1,286046998.2,N
1682216776.0,286046998.2,N
1682216795.8,286046996.5,N
1682216815.7,286046997.4,N
1682216835.5,286046995.0,N
1682216855.3,286046995.0,N
1682216875.2,286046995.7,N
1682216895.0,286046997.2,N
1682216895.9,286046997.2,N
1682216915.8,286046996.9,N
1682216935.6,286046996.6,N
1682216955.4,286046999.1,N
1682216975.3,286046999.3,N
1682216995.1,286046997.0,N
1682217015.8,286046996.9,N
1682217035.7,286046999.6,N
1682217055.5,286046995.0,N
1682217075.4,286046997.3,N
1682217095.2,286046997.7,N
1682217115.0,286046997.5,N
1682217115.9,286046997.5,N
1682217135.8,286046997.9,N
1682217155.6,286046995.0,Y
1682217175.4,286046998.4,P
1682217195.3,286046999.4,N
1682217215.1,286046996.8,P
1682217235.9,286046997.3,N
1682217255.7,286046997.3,Y
1682217275.5,286046998.6,P
1682217295.4,286046998.9,P
1682217315.2,286047000.8,N
1682217335.1,286047000.5,N
1682217336.0,286047000.5,N
1682217355.8,286047000.8,N
1682217375.7,286046996.5,Y
1682217395.5,286046998.9,P
1682217415.3,286046998.4,P
1682217435.2,286046998.9,N
1682217455.9,286046999.5,N
1682217475.7,286046996.7,Y
1682217495.6,286046997.7,P
1682217515.4,286046994.9,P
1682217535.3,286046995.4,N
1682217555.1,286046995.0,N
1682217556.0,286046995.0,N
1682217575.8,286046998.0,N
1682217595.7,286046995.5,N
1682217615.5,286046995.0,Y
1682217635.3,286047001.1,P
1682217655.2,286046999.3,N
1682217675.0,286046999.3,N
1682217675.9,286046999.3,N
1682217695.8,286046999.4,N
1682217715.6,286046996.5,N
1682217735.4,286046996.5,N
1682217755.3,286046999.2,N
1682217775.1,286046999.0,N
1682217795.8,286046999.2,N
1682217815.7,286046998.7,N
1682217835.5,286046999.6,N
1682217855.4,286046999.2,N
1682217875.2,286046997.4,N
1682217895.0,286046998.0,N
1682217895.9,286046998.0,N
1682217915.8,286046998.0,N
1682217935.6,286046995.3,Y
1682217955.5,286046996.8,P
1682217975.3,286046997.0,P
1682217995.1,286046997.3,P
1682218015.9,286046996.8,Y
1682218035.7,286047000.4,P
1682218055.5,286047000.9,N
1682218075.4,286047000.3,N
1682218095.2,286046998.5,N
1682218115.1,286046998.5,N
1682218116.0,286046998.5,N
1682218135.8,286047000.6,N
1682218155.6,286047000.9,N
1682218175.0,286047000.9,N
1682218175.9,286047000.9,N
1682218195.8,286046998.4,N
1682218215.6,286046998.6,N
1682218235.4,286046998.7,N
1682218255.3,286046997.2,N
1682218275.1,286046999.5,N
1682218295.9,286046999.2,N
1682218315.7,286046999.4,N
1682218335.5,286046999.4,N
1682218355.4,286046997.3,N
1682218375.2,286046995.0,Y
1682218395.1,286046997.4,P
1682218396.0,286046997.4,N
1682218415.8,286046997.3,P
1682218435.6,286046999.4,N
1682218455.5,286046999.0,N
1682218475.3,286046998.2,N
1682218495.2,286046998.9,N
1682218515.9,286046998.8,N
1682218535.7,286046998.8,N
1682218555.6,286046998.4,N
1682218575.4,286046998.8,N
1682218595.2,286046999.1,N
1682218615.1,286046998.9,N
1682218616.0,286046998.9,N
1682218635.8,286046996.9,Y
1682218655.7,286046999.9,P
1682218675.5,286047000.7,N
1682218695.3,286046998.3,N
1682218715.2,286046998.3,N
1682218735.0,286046998.6,N
1682218735.9,286046998.6,N
1682218755.8,286046998.9,N
1682218775.6,286046999.0,N
1682218795.4,286046998.4,N
